Location: Carthage
(33.8834°N, 106.6595°W)
Time: 13:57:26
(UTC+00:00)

COSMOS 2455 - Pass Details

Date: 13 February 2026
Orbit: 899 x 909 km, 67.1° (Epoch: 11 March)

Event Time Altitude Azimuth Distance (km) Brightness Sun altitude
Exits shadow 12:23:02 33° 282° (WNW) 1,473 3.4 -19.2°
Maximum altitude 12:24:02 35° 303° (WNW) 1,419 3.4 -19.0°
Drops below altitude 10° 12:29:30 10° 8° (N) 2,596 5.3 -17.9°
Sets 12:32:16 0° 17° (NNE) 3,541 6.1 -17.3°
